Location: Plainartige
(45.6866°N, 1.7993°E)
Time: 12:56:40
(UTC+00:00)

deb r/b Ablestar - Pass Details

Date: 04 October 2021
Orbit: 843 x 997 km, 67.7° (Epoch: 22 October)

Event Time Altitude Azimuth Distance (km) Brightness Sun altitude
Rises 19:42:41 0° 327° (NNW) 3,418 ? -24.2°
Reaches altitude 10° 19:45:07 10° 325° (NW) 2,487 ? -24.6°
Maximum altitude 19:50:48 71° 243° (WSW) 916 ? -25.5°
Enters shadow 19:52:25 48° 176° (S) 1,132 ? -25.8°
